Weather History for Newberry, MI

Change the Weather History Date:

Wednesday, December 12, 2012

  Actual Average Record
Temperature  
Mean Temperature 22 °F -  
Max Temperature 37 °F 29 °F 51 °F (1949)
Min Temperature 8 °F 14 °F -10 °F (1989)
Degree Days  
Heating Degree Days 42    
Moisture  
Dew Point 17 °F    
Average Humidity 83    
Maximum Humidity 93    
Minimum Humidity 68    
Precipitation  
Precipitation 0.00 in - - ()
Sea Level Pressure  
Sea Level Pressure 30.10 in    
Wind  
Wind Speed 8 mph (SSW)    
Max Wind Speed 16 mph    
Max Gust Speed 22 mph    
Visibility 10 miles    
Events Snow    
Averages and records for this station are not official NWS values.
T = Trace of Precipitation, MM = Missing Value Source: NWS Daily Summary

Daily Weather History Graph

Daily Weather History Graph

Search for Another Location

Airport:

Trip Planner

Search our weather history database for the weather conditions in past years. The results will help you decide how hot, cold, wet, or windy it might be!

Date:

Astronomy

Dec. 12, 2012 Rise Set
Actual Time 8:16 AM EST 4:55 PM EST
Civil Twilight 7:41 AM EST 5:30 PM EST
Nautical Twilight 7:03 AM EST 6:08 PM EST
Astronomical Twilight 6:26 AM EST 6:44 PM EST
Moon 7:18 AM EST (12/12) 4:32 PM EST (12/12)
Length of Visible Light 9h 48m
Length of Day
8h 39m
Waning Crescent, 1% of the Moon is Illuminated
Dec 12
Waning Crescent
Dec 13
New
Dec 20
First Quarter
Dec 28
Full
Jan 4
Last Quarter

Hourly Weather History & Observations

Time (EST) Temp. Windchill Dew Point Humidity Pressure Visibility Wind Dir Wind Speed Gust Speed Precip Events Conditions
12:14 AM 21.2 °F 10.9 °F 17.6 °F 86% 29.93 in 10.0 mi SW 9.2 mph - N/A Snow Light Snow
12:35 AM 21.2 °F 10.1 °F 15.8 °F 80% 29.95 in 10.0 mi WSW 10.4 mph - N/A Snow Light Snow
12:54 AM 21.2 °F 12.6 °F 15.8 °F 80% 29.95 in 10.0 mi WSW 6.9 mph - N/A   Overcast
1:15 AM 21.2 °F 12.6 °F 15.8 °F 80% 29.96 in 10.0 mi SW 6.9 mph - N/A   Overcast
1:35 AM 19.4 °F 10.4 °F 14.0 °F 80% 29.97 in 10.0 mi WSW 6.9 mph - N/A   Mostly Cloudy
1:54 AM 19.4 °F 10.4 °F 14.0 °F 80% 29.98 in 10.0 mi WSW 6.9 mph - N/A   Mostly Cloudy
2:15 AM 19.4 °F 9.5 °F 14.0 °F 80% 29.99 in 10.0 mi SW 8.1 mph - N/A   Scattered Clouds
2:35 AM 19.4 °F 10.4 °F 15.8 °F 86% 29.99 in 10.0 mi SSW 6.9 mph - N/A Snow Light Snow
2:54 AM 19.4 °F 11.5 °F 15.8 °F 86% 30.01 in 10.0 mi WSW 5.8 mph - N/A   Overcast
3:15 AM 21.2 °F 10.9 °F 15.8 °F 80% 30.02 in 10.0 mi WSW 9.2 mph - N/A Snow Light Snow
3:34 AM 21.2 °F 12.6 °F 15.8 °F 80% 30.03 in 10.0 mi WSW 6.9 mph - N/A Snow Light Snow
3:54 AM 19.4 °F 10.4 °F 15.8 °F 86% 30.04 in 10.0 mi WSW 6.9 mph - N/A Snow Light Snow
4:15 AM 19.4 °F 9.5 °F 14.0 °F 80% 30.03 in 10.0 mi SW 8.1 mph - N/A   Overcast
4:34 AM 17.6 °F 7.3 °F 12.2 °F 79% 30.03 in 10.0 mi SW 8.1 mph - N/A Snow Light Snow
4:54 AM 15.8 °F 4.2 °F 10.4 °F 79% 30.05 in 10.0 mi SW 9.2 mph - N/A   Mostly Cloudy
5:15 AM 15.8 °F 5.1 °F 10.4 °F 79% 30.05 in 10.0 mi SW 8.1 mph - N/A   Clear
5:34 AM 15.8 °F 5.1 °F 10.4 °F 79% 30.07 in 10.0 mi SW 8.1 mph - N/A   Clear
5:55 AM 14.0 °F 3.9 °F 10.4 °F 86% 30.07 in 10.0 mi SW 6.9 mph - N/A   Clear
6:15 AM 14.0 °F 2.9 °F 8.6 °F 79% 30.08 in 10.0 mi SW 8.1 mph - N/A   Clear
6:34 AM 12.2 °F 0.7 °F 8.6 °F 85% 30.09 in 10.0 mi WSW 8.1 mph - N/A   Clear
6:55 AM 12.2 °F 1.7 °F 8.6 °F 85% 30.10 in 10.0 mi WSW 6.9 mph - N/A   Clear
7:15 AM 10.4 °F -1.5 °F 8.6 °F 92% 30.11 in 10.0 mi SW 8.1 mph - N/A   Clear
7:34 AM 12.2 °F 1.7 °F 8.6 °F 85% 30.11 in 10.0 mi SW 6.9 mph - N/A   Clear
7:55 AM 8.6 °F -4.7 °F 6.8 °F 92% 30.12 in 10.0 mi SW 9.2 mph - N/A   Clear
8:14 AM 10.4 °F -3.3 °F 6.8 °F 85% 30.13 in 10.0 mi SW 10.4 mph - N/A   Clear
8:34 AM 12.2 °F -0.2 °F 8.6 °F 85% 30.13 in 10.0 mi SW 9.2 mph - N/A   Clear
8:55 AM 12.2 °F 0.7 °F 8.6 °F 85% 30.15 in 10.0 mi SW 8.1 mph - N/A   Clear
9:14 AM 12.2 °F 1.7 °F 8.6 °F 85% 30.15 in 10.0 mi WSW 6.9 mph - N/A   Clear
9:34 AM 14.0 °F 3.9 °F 10.4 °F 86% 30.16 in 10.0 mi WSW 6.9 mph - N/A   Clear
9:55 AM 14.0 °F 3.9 °F 8.6 °F 79% 30.17 in 10.0 mi WSW 6.9 mph - N/A   Clear
10:14 AM 14.0 °F 6.5 °F 10.4 °F 86% 30.18 in 10.0 mi WSW 4.6 mph - N/A   Clear
10:35 AM 15.8 °F 7.2 °F 10.4 °F 79% 30.19 in 10.0 mi WSW 5.8 mph - N/A   Clear
10:55 AM 17.6 °F 9.3 °F 10.4 °F 73% 30.19 in 10.0 mi WSW 5.8 mph - N/A   Clear
11:14 AM 15.8 °F 10.2 °F 10.4 °F 79% 30.19 in 10.0 mi SW 3.5 mph - N/A   Clear
11:35 AM 17.6 °F 8.2 °F 12.2 °F 79% 30.20 in 10.0 mi SW 6.9 mph - N/A   Clear
11:55 AM 17.6 °F 12.3 °F 12.2 °F 79% 30.19 in 10.0 mi SSW 3.5 mph - N/A   Clear
12:14 PM 17.6 °F 10.7 °F 12.2 °F 79% 30.19 in 10.0 mi SSW 4.6 mph - N/A   Clear
12:35 PM 17.6 °F - 10.4 °F 73% 30.18 in 10.0 mi Calm Calm - N/A   Clear
12:54 PM 19.4 °F - 12.2 °F 74% 30.19 in 10.0 mi Calm Calm - N/A   Clear
1:14 PM 21.2 °F 16.4 °F 12.2 °F 68% 30.19 in 10.0 mi SW 3.5 mph - N/A   Clear
1:35 PM 21.2 °F - 12.2 °F 68% 30.18 in 10.0 mi Calm Calm - N/A   Scattered Clouds
1:54 PM 23.0 °F 14.7 °F 14.0 °F 68% 30.18 in 10.0 mi South 6.9 mph - N/A   Scattered Clouds
2:15 PM 24.8 °F 17.9 °F 15.8 °F 69% 30.17 in 10.0 mi South 5.8 mph - N/A   Clear
2:35 PM 24.8 °F 19.1 °F 17.6 °F 74% 30.17 in 10.0 mi South 4.6 mph - N/A   Clear
2:54 PM 26.6 °F 19.1 °F 19.4 °F 74% 30.17 in 10.0 mi South 6.9 mph - N/A   Scattered Clouds
3:15 PM 26.6 °F 19.1 °F 19.4 °F 74% 30.17 in 10.0 mi South 6.9 mph - N/A   Scattered Clouds
3:35 PM 26.6 °F 21.2 °F 21.2 °F 80% 30.16 in 10.0 mi South 4.6 mph - N/A   Scattered Clouds
3:54 PM 26.6 °F 20.0 °F 21.2 °F 80% 30.16 in 10.0 mi SSE 5.8 mph - N/A   Clear
4:15 PM 26.6 °F 20.0 °F 21.2 °F 80% 30.17 in 10.0 mi SE 5.8 mph - N/A   Clear
4:35 PM 24.8 °F 17.9 °F 21.2 °F 86% 30.16 in 10.0 mi SE 5.8 mph - N/A   Clear
4:54 PM 24.8 °F 19.1 °F 21.2 °F 86% 30.16 in 10.0 mi SE 4.6 mph - N/A   Scattered Clouds
5:15 PM 24.8 °F 17.9 °F 21.2 °F 86% 30.16 in 10.0 mi SE 5.8 mph - N/A   Mostly Cloudy
5:34 PM 24.8 °F 17.9 °F 21.2 °F 86% 30.15 in 10.0 mi SE 5.8 mph - N/A   Mostly Cloudy
5:54 PM 24.8 °F 16.9 °F 21.2 °F 86% 30.15 in 10.0 mi SE 6.9 mph - N/A   Overcast
6:15 PM 26.6 °F 19.1 °F 23.0 °F 86% 30.14 in 10.0 mi SE 6.9 mph - N/A   Overcast
6:34 PM 24.8 °F 19.1 °F 23.0 °F 93% 30.14 in 10.0 mi SE 4.6 mph - N/A   Overcast
7:15 PM 26.6 °F 18.2 °F 24.8 °F 93% 30.12 in 10.0 mi SE 8.1 mph - N/A   Overcast
7:34 PM 28.4 °F 18.5 °F 26.6 °F 93% 30.11 in 10.0 mi SSE 11.5 mph - N/A   Overcast
7:55 PM 30.2 °F 18.9 °F 26.6 °F 86% 30.10 in 10.0 mi SSE 16.1 mph 19.6 mph N/A   Overcast
8:15 PM 30.2 °F 19.8 °F 26.6 °F 86% 30.09 in 10.0 mi SSE 13.8 mph 18.4 mph N/A   Mostly Cloudy
8:34 PM 30.2 °F 19.3 °F 26.6 °F 86% 30.09 in 10.0 mi SSE 15.0 mph - N/A   Scattered Clouds
8:55 PM 30.2 °F 19.8 °F 28.4 °F 93% 30.09 in 10.0 mi SSE 13.8 mph - N/A   Mostly Cloudy
9:14 PM 32.0 °F 23.0 °F 28.4 °F 87% 30.08 in 10.0 mi SSE 11.5 mph - N/A   Scattered Clouds
9:34 PM 32.0 °F 23.0 °F 28.4 °F 87% 30.08 in 10.0 mi SSE 11.5 mph - N/A   Mostly Cloudy
9:55 PM 33.8 °F 25.3 °F 30.2 °F 87% 30.07 in 10.0 mi SSE 11.5 mph - N/A   Overcast
10:34 PM 37.4 °F 30.3 °F 33.8 °F 87% 30.08 in 10.0 mi South 10.4 mph - N/A   Overcast
10:55 PM 37.4 °F 29.3 °F 33.8 °F 87% 30.08 in 10.0 mi South 12.7 mph - N/A   Overcast
11:14 PM 37.4 °F 28.9 °F 33.8 °F 87% 30.08 in 10.0 mi South 13.8 mph 21.9 mph N/A   Overcast
11:35 PM 37.4 °F 28.5 °F 35.6 °F 93% 30.08 in 10.0 mi South 15.0 mph 21.9 mph N/A   Overcast
11:55 PM 37.4 °F 29.3 °F 35.6 °F 93% 30.08 in 10.0 mi South 12.7 mph - N/A   Overcast